Location: Elstree
(51.6403°N, 0.2969°W)
Time: 15:23:11
(UTC+00:00)

SJ 16-02 - Pass Details

Date: 21 June 2021
Orbit: 606 x 616 km, 75.0° (Epoch: 29 July)

Event Time Altitude Azimuth Distance (km) Brightness Sun altitude
Rises 00:46:45 0° 325° (NW) 2,876 5.5 -14.3°
Reaches altitude 10° 00:49:27 10° 309° (NW) 1,966 4.3 -14.2°
Maximum altitude 00:52:38 20° 262° (W) 1,417 3.0 -14.1°
Enters shadow 00:54:25 16° 231° (SW) 1,606 3.0 -14.1°
